METAR Formatted Surface Weather Observation
Issued by NWS

Home | Current Version | Previous Version | Text Only | Print | Product List | Glossary On
Versions: 1 2 3 4 5 6 7 8 9 10 11 12 13 14 15 16 17 18 19 20 21 22 23 24 25 26 27 28 29 30 31 32 33 34 35 36 37 38 39 40 41 42 43 44 45 46 47 48 49 50
000
SAUS42 KJAX 301153
MTRNRB
METAR KNRB 301152Z VRB03KT 10SM FEW020 SCT070 24/20 A2995 RMK AO2
SLP142 T02440200 10256 20239 51013 $



USA.gov is the U.S. government's official web portal to all federal, state and local government web resources and services.